Hourly Data Report for April 14, 2021

KUGAARUK CLIMATE
NUNAVUT
Current Station Operator: ECCC - MSC

68°32'15.060" N
89°47'47.020" W
15.80 m
2303094
71407
NBB

Download Data

Hourly Data (April 2021)
Hourly Data Report for April 14, 2021
TIME
LST
Temp Definition
°C
Dew Point Definition
°C
Rel Hum Definition
%
Precip. Amount Definition
mm

Wind Dir Definition
10's deg

Wind Spd Definition
km/h
Visibility Definition
km
Stn Press Definition
kPa
Hmdx Definition


Wind Chill Definition


Weather Definition


00:00 -29.8 -32.5 77 0.0 9 10   103.72   -39 LegendNANA
01:00 -30.0 -32.8 76 0.0 8 9   103.69   -39 LegendNANA
02:00 -31.4 -34.3 75 0.0 6 11   103.70   -41 LegendNANA
03:00 -30.3 -32.9 78 0.0 7 8   103.68   -38 LegendNANA
04:00 -30.7 -34.0 73 0.2 10 13   103.64   -41 LegendNANA
05:00 -30.1 -33.5 72 0.0 9 11   103.62   -40 LegendNANA
06:00 -28.4 -32.0 71 0.0 8 8   103.59   -36 LegendNANA
07:00 -26.5 -30.6 68 0.4 5 4   103.53   -31 LegendNANA
08:00 -20.4 -24.4 71 0.3 5 19   103.47   -31 LegendNANA
09:00 -19.8 -23.9 70 0.0 9 20   103.44   -30 LegendNANA
10:00 -17.4 -21.8 68 0.0 8 24   103.36   -28 LegendNANA
11:00 -18.5 -22.6 70 0.0 8 31   103.30   -31 LegendNANA
12:00 -18.0 -22.0 71 0.0 8 30   103.27   -30 LegendNANA
13:00 -16.8 -20.4 74 0.0 9 30   103.22   -28 LegendNANA
14:00 -16.0 -19.6 73 0.0 10 30   103.16   -27 LegendNANA
15:00 -14.9 -18.2 76 0.0 9 27   103.11   -25 LegendNANA
16:00 -14.4 -17.4 78 0.0 8 28   103.09   -25 LegendNANA
17:00 -14.1 -16.7 81 0.0 7 19   103.08   -23 LegendNANA
18:00 -13.8 -16.1 83 0.0 7 20   103.05   -23 LegendNANA
19:00 -14.1 -16.2 84 0.0 6 14   103.00   -22 LegendNANA
20:00 -14.1 -16.1 85 0.0 7 12   103.00   -21 LegendNANA
21:00 -14.0 -15.9 85 0.0 7 11   102.97   -20 LegendNANA
22:00 -14.0 -15.9 85 0.0 8 9   102.96   -20 LegendNANA
23:00 -14.1 -16.0 86 0.0 8 8   102.96   -19 LegendNANA

Notes on Data Quality.

Legend

  • E = Estimated
  • M = Missing
  • NA = Not Available*
  • [empty] = Indicates an unobserved value
Date modified: